Simultaneous Nadir Overpasses (SNOs) Predictions

Prediction of SNOs between FY3D and METOP-C Satellite Orbit:

Table of predicted SNOs for the next 14.0 days since TLE Epoch: 2/18/2020
Index Date (FY3D) Time (FY3D) Lat,Lon (FY3D) SZA (FY3D ) Date (METOP-C) Time (METOP-C) Lat,Lon (METOP-C) SZA (METOP-C ) Distance(km) Time Diff (sec)
1 03/02/2020 13:51:50 -73.68, 142.92 99.17 03/02/2020 13:52:56 -73.61, 145.84 99.40 91.85 66
2 03/02/2020 14:42:30 73.44, -49.21 80.56 03/02/2020 14:43:39 73.42, -47.27 80.42 61.74 69
3 03/02/2020 15:33:13 -73.38, 118.25 99.53 03/02/2020 15:34:23 -73.33, 119.87 99.68 51.95 70
4 03/02/2020 16:23:54 73.18, -74.01 80.25 03/02/2020 16:25:06 73.13, -73.23 80.14 25.80 72
5 03/02/2020 17:14:37 -73.12, 93.44 99.84 03/02/2020 17:15:50 -73.05, 93.92 99.95 17.24 73
6 03/02/2020 18:05:19 72.98, -98.94 79.99 03/02/2020 18:06:31 72.95, -98.96 79.96 2.61 72
7 03/02/2020 18:56:03 -72.97, 68.40 100.04 03/02/2020 18:57:13 -72.97, 68.41 100.05 0.66 70
8 03/02/2020 19:46:48 72.97,-124.30 79.96 03/02/2020 19:47:52 72.98,-124.25 79.95 1.59 64
9 03/02/2020 20:37:32 -72.96, 43.04 100.07 03/02/2020 20:38:35 -72.94, 43.00 100.10 2.40 63
10 03/02/2020 21:28:17 72.97,-149.66 79.93 03/02/2020 21:29:14 72.95,-149.65 79.90 2.38 57
11 03/02/2020 22:19:01 -72.96, 17.68 100.10 03/02/2020 22:19:56 -72.96, 17.71 100.11 1.27 55
12 03/02/2020 23:09:46 72.96,-175.02 79.90 03/02/2020 23:10:35 72.97,-174.94 79.89 2.53 49
13 03/03/2020 00:00:30 -72.95, -7.68 100.13 03/03/2020 00:01:18 -72.94, -7.69 100.16 1.94 48
14 03/03/2020 00:51:15 72.96, 159.62 79.87 03/03/2020 00:51:57 72.94, 159.66 79.83 2.52 42
15 03/03/2020 01:41:59 -72.95, -33.04 100.17 03/03/2020 01:42:39 -72.96, -32.98 100.17 2.12 40




NCC Satellite Simultaneous Nadir Overpasses (SNOs) Prediction Service
